[[{"header":{"parameterUnit":"m.s-1","parameterCategory":1,"la1":30.2991,"la2":30.254,"lo1":-89.0895,"lo2":-89.0444,"dy":0.0017,"dx":0.0017,"nx":28,"ny":28,"refTime":"2023-09-07T03:00:00:Z","depth":0,"parameterNumber":2,"parameterNumberName":"U-component_of_WINDS"},"data":[0,0,0,0,0,0,0,0,0,0,0,0,0,0,0,0,0,0,0,0,0,0,0,0,0,0,0,0,0,0,0,0,0,0,0,0,0,0,0,0,0,0,0,0,0,0,0,0,0,0,0,0,0,0,0,0,0,0,1.4565,1.4565,0,1.459,1.4591,1.4591,1.4592,1.4592,1.4591,1.4591,1.4615,1.4616,1.4617,0,0,0,0,0,0,0,0,0,0,0,0,0,1.4512,1.4513,1.4565,1.4565,1.4565,1.459,1.4591,1.4591,1.4592,1.4592,1.4591,1.4591,1.4615,1.4616,1.4617,0,0,0,0,0,0,0,0,0,0,0,0,0,1.4536,1.4514,1.4564,1.4569,1.4569,1.459,1.4591,1.4591,1.4592,1.4592,1.4591,1.4591,1.4614,1.4616,1.4617,1.4635,0,0,1.4621,1.4622,0,0,0,0,0,0,0,0,1.4535,1.4538,1.4568,1.4568,1.4569,1.4588,1.4581,1.4606,1.4592,1.4583,1.4591,1.459,1.4606,1.4608,1.4614,1.4636,1.4637,1.4621,1.4622,1.4623,1.4623,0,0,0,0,0,0,0,1.4533,1.4537,1.4575,1.4568,1.4569,1.4568,1.4571,1.4586,1.4597,1.4584,1.4584,1.4587,1.4606,1.4613,1.4614,1.4637,1.4621,1.4623,1.4623,1.4624,1.4673,1.4673,0,0,0,0,0,0,1.4531,1.4536,1.4574,1.4575,1.4551,1.4569,1.4573,1.4582,1.4597,1.4599,1.4588,1.4587,1.461,1.4613,1.4615,1.4635,1.4623,1.4624,1.4625,1.4672,1.4673,1.4673,0,0,0,0,0,0,1.453,1.4535,1.4573,1.4556,1.456,1.4571,1.4581,1.4583,1.4589,1.46,1.4601,1.4592,1.461,1.4613,1.463,1.4636,1.4625,1.4626,1.4672,1.4672,1.4673,1.4677,0,0,0,0,0,0,1.4529,1.4534,1.4542,1.4556,1.4561,1.4588,1.4582,1.4584,1.4592,1.4591,1.4604,1.4606,1.461,1.4627,1.4631,1.4638,1.4627,1.4671,1.4672,1.4673,1.4676,1.4678,1.4679,0,0,0,0,0,1.4527,1.4542,1.4542,1.4547,1.4571,1.4588,1.4591,1.4596,1.4592,1.4599,1.4606,1.4605,1.4635,1.4629,1.4633,1.4641,1.4671,1.4672,1.4673,1.4676,1.4677,1.4679,0,0,0,0,0,0,1.4528,1.4544,1.4545,1.4565,1.4575,1.4588,1.4598,1.4598,1.461,1.4609,1.4614,1.4617,1.4632,1.4638,1.4631,1.4657,1.4652,1.4654,1.4653,1.4655,1.4656,1.4654,1.4628,0,0,0,0,0,1.4531,1.4544,1.4557,1.4573,1.4579,1.4587,1.4595,1.4598,1.4608,1.4612,1.462,1.463,1.4641,1.4648,1.4659,1.4677,1.4679,1.4684,1.4685,1.4686,1.4688,1.4696,1.4698,1.4677,1.4677,1.4677,0,0,1.4537,1.4547,1.4555,1.4574,1.4582,1.4595,1.4591,1.4604,1.4613,1.4614,1.463,1.4636,1.4647,1.4663,1.4671,1.4668,1.4694,1.4688,1.4689,1.4689,1.4697,1.4699,1.4701,1.4677,1.4677,1.4677,0,0,1.4553,1.4563,1.4577,1.4585,1.4598,1.4603,1.4607,1.4619,1.4623,1.4639,1.464,1.465,1.467,1.4677,1.4683,1.4701,1.47,1.4704,1.4711,1.4719,1.472,1.4722,1.4727,1.4729,1.4706,1.4706,1.4706,0,1.4558,1.4578,1.4584,1.4597,1.4605,1.4607,1.462,1.4628,1.4643,1.4648,1.4645,1.4669,1.4676,1.4694,1.4698,1.4704,1.4706,1.4702,1.472,1.4721,1.4723,1.4727,1.4729,1.4706,1.4706,1.4706,1.4706,0,1.4582,1.4596,1.4606,1.4621,1.4629,1.4643,1.4649,1.4657,1.4659,1.4664,1.468,1.4689,1.4701,1.4705,1.4707,1.4723,1.4721,1.4719,1.4714,1.4725,1.4729,1.4731,1.4706,1.4706,1.4706,1.4706,0,0,1.4601,1.4618,1.4622,1.4628,1.4641,1.4651,1.4664,1.4676,1.4682,1.4693,1.4702,1.4718,1.4717,1.4724,1.4726,1.4733,1.4745,1.473,1.4731,1.4732,1.476,1.4761,1.4763,1.4745,1.4745,1.4745,1.4759,0,1.4617,1.4641,1.4646,1.4665,1.4677,1.4678,1.4689,1.4698,1.4703,1.4712,1.4717,1.4728,1.4726,1.4729,1.4737,1.4742,1.475,1.4741,1.4752,1.4753,1.4749,1.4766,1.4767,1.4779,1.4761,1.4761,1.4761,0,1.464,1.4651,1.4672,1.4683,1.4688,1.4697,1.4708,1.4718,1.4727,1.473,1.4738,1.4739,1.4751,1.4745,1.4761,1.4754,1.4759,1.4762,1.4763,1.4763,1.4757,1.4765,1.4783,1.4785,1.4764,1.4764,1.4764,0,1.4649,1.4669,1.4684,1.4689,1.4703,1.4709,1.4715,1.4724,1.4731,1.474,1.4744,1.4755,1.476,1.4767,1.4771,1.4767,1.4786,1.4781,1.4787,1.4787,1.4791,1.479,1.4808,1.4795,1.4795,1.4795,1.4795,0,1.4667,1.4679,1.4688,1.4697,1.471,1.4715,1.4728,1.4734,1.4741,1.475,1.4752,1.476,1.4766,1.4774,1.4777,1.4788,1.4791,1.4793,1.4793,1.4792,1.4792,1.4795,1.4794,1.4796,1.4796,1.4796,1.4796,0,1.4679,1.4686,1.4702,1.4713,1.4716,1.4725,1.4734,1.4742,1.4747,1.4758,1.4761,1.4768,1.4778,1.4783,1.4795,1.4797,1.481,1.481,1.4807,1.4807,1.4812,1.4811,1.4833,1.4835,1.4821,1.4821,1.4821,0,1.469,1.4699,1.4711,1.4718,1.4724,1.4734,1.4741,1.4746,1.4753,1.4763,1.477,1.478,1.4788,1.4804,1.481,1.4819,1.4819,1.4825,1.482,1.4818,1.4817,1.4816,1.4817,1.4826,1.4826,1.4826,1.4826,0,1.4707,1.4709,1.4719,1.473,1.4738,1.4747,1.4756,1.4761,1.4767,1.4774,1.4785,1.4791,1.4804,1.4813,1.4823,1.4827,1.4827,1.4828,1.483,1.4828,1.4826,1.4826,1.4808,1.4827,1.4827,1.4827,1.4827,1.4827,1.4717,1.4725,1.4735,1.4746,1.4753,1.476,1.4768,1.4774,1.4783,1.4794,1.4796,1.4807,1.4814,1.4827,1.4832,1.484,1.4838,1.4841,1.4841,1.4842,1.4842,1.4825,1.4841,1.4841,1.4841,1.4841,1.4841,0,1.4733,1.474,1.4749,1.4761,1.4769,1.477,1.4779,1.4785,1.4795,1.4802,1.4811,1.4822,1.4831,1.4837,1.4846,1.4851,1.4851,1.4853,1.4852,1.4853,1.4843,1.484,1.4853,1.4853,1.4853,1.4853,1.4853,1.4853,1.4743,1.4756,1.4759,1.4775,1.4781,1.4792,1.4797,1.4803,1.4809,1.4822,1.483,1.4834,1.4841,1.485,1.4858,1.4859,1.4862,1.4864,1.4865,1.4855,1.4854,1.4853,1.485,1.4865,1.4865,1.4874,1.4875,1.4875]},{"header":{"parameterUnit":"m.s-1","parameterCategory":1,"la1":30.2991,"la2":30.254,"lo1":-89.0895,"lo2":-89.0444,"dy":0.0017,"dx":0.0017,"nx":28,"ny":28,"refTime":"2023-09-07T03:00:00:Z","depth":0,"parameterNumber":3,"parameterNumberName":"V-component_of_WINDS"},"data":[0,0,0,0,0,0,0,0,0,0,0,0,0,0,0,0,0,0,0,0,0,0,0,0,0,0,0,0,0,0,0,0,0,0,0,0,0,0,0,0,0,0,0,0,0,0,0,0,0,0,0,0,0,0,0,0,0,0,2.3389,2.3389,0,2.3415,2.3415,2.3415,2.3392,2.3391,2.339,2.3389,2.3413,2.3415,2.3416,0,0,0,0,0,0,0,0,0,0,0,0,0,2.3315,2.3316,2.3389,2.3389,2.3389,2.3415,2.3415,2.3415,2.3392,2.3391,2.339,2.3388,2.3413,2.3414,2.3416,0,0,0,0,0,0,0,0,0,0,0,0,0,2.3344,2.3317,2.3388,2.3381,2.338,2.3415,2.3415,2.3415,2.3392,2.3391,2.3389,2.3388,2.3412,2.3414,2.3416,2.3459,0,0,2.3423,2.3424,0,0,0,0,0,0,0,0,2.3343,2.3347,2.3381,2.3381,2.3381,2.3399,2.3398,2.343,2.3392,2.3388,2.3389,2.3387,2.3409,2.3412,2.342,2.346,2.3461,2.3424,2.3425,2.3426,2.3427,0,0,0,0,0,0,0,2.3341,2.3346,2.3399,2.3382,2.3382,2.3375,2.3377,2.3404,2.3406,2.3388,2.3386,2.339,2.3409,2.3417,2.342,2.3462,2.3424,2.3426,2.3427,2.3428,2.3537,2.3538,0,0,0,0,0,0,2.334,2.3344,2.3398,2.34,2.3358,2.3377,2.338,2.3394,2.3406,2.3406,2.3391,2.3389,2.3414,2.3417,2.3421,2.347,2.3426,2.3428,2.3429,2.3535,2.3537,2.3539,0,0,0,0,0,0,2.3338,2.3345,2.3397,2.3372,2.3378,2.338,2.3396,2.3396,2.3404,2.3408,2.3408,2.34,2.3413,2.3418,2.345,2.3471,2.3429,2.3431,2.3534,2.3536,2.3538,2.357,0,0,0,0,0,0,2.3336,2.3345,2.3362,2.3372,2.3379,2.3426,2.3397,2.3397,2.3409,2.3406,2.3416,2.3417,2.3412,2.3446,2.3452,2.3473,2.3433,2.3532,2.3535,2.3537,2.3567,2.3573,2.3578,0,0,0,0,0,2.3334,2.3369,2.3363,2.3369,2.3401,2.3428,2.3432,2.3427,2.341,2.3427,2.3429,2.3416,2.3468,2.345,2.3456,2.3478,2.353,2.3534,2.3537,2.3565,2.3572,2.3578,0,0,0,0,0,0,2.3361,2.3371,2.3363,2.3404,2.3415,2.3424,2.3444,2.3435,2.3451,2.3447,2.344,2.3443,2.3476,2.348,2.346,2.3519,2.3496,2.3501,2.3515,2.3522,2.3528,2.3525,2.3435,0,0,0,0,0,2.3372,2.3394,2.3401,2.3436,2.3442,2.3442,2.3454,2.3449,2.346,2.3465,2.347,2.348,2.3498,2.3511,2.3528,2.3568,2.3569,2.3586,2.3592,2.3596,2.36,2.362,2.3627,2.355,2.355,2.355,0,0,2.3394,2.3402,2.3416,2.3441,2.3449,2.3471,2.3446,2.3471,2.3486,2.3468,2.3499,2.3502,2.3514,2.3549,2.3565,2.3554,2.3622,2.3601,2.3604,2.3606,2.3624,2.3631,2.3638,2.3552,2.3552,2.3552,0,0,2.3445,2.3454,2.3483,2.3492,2.3505,2.3505,2.3512,2.3522,2.3524,2.3555,2.3541,2.3559,2.3592,2.36,2.3608,2.3661,2.3649,2.3667,2.3696,2.3715,2.3721,2.3727,2.3744,2.375,2.3671,2.3671,2.3671,0,2.347,2.3504,2.3499,2.3524,2.3535,2.352,2.3549,2.3557,2.3575,2.3582,2.357,2.3609,2.3616,2.3652,2.3665,2.3673,2.368,2.3665,2.3721,2.3726,2.3731,2.3747,2.3754,2.3673,2.3673,2.3673,2.3673,0,2.3533,2.3556,2.3578,2.3596,2.3609,2.3636,2.3635,2.3648,2.3642,2.3643,2.3674,2.3681,2.3699,2.3708,2.3702,2.3743,2.3736,2.3722,2.3699,2.374,2.3756,2.3762,2.3676,2.3675,2.3675,2.3674,0,0,2.3602,2.3617,2.3625,2.3632,2.3645,2.3662,2.3688,2.3706,2.3717,2.3729,2.3749,2.3777,2.3764,2.3774,2.3769,2.3786,2.3826,2.377,2.377,2.3779,2.3869,2.3878,2.3886,2.3819,2.382,2.3821,2.3868,0,2.3652,2.3697,2.3693,2.3735,2.3755,2.3742,2.3763,2.3773,2.3775,2.3791,2.3792,2.3811,2.3794,2.38,2.3816,2.3818,2.3844,2.3814,2.3835,2.3836,2.3832,2.3894,2.3904,2.3948,2.3874,2.3875,2.3876,0,2.3716,2.3732,2.3776,2.3784,2.3793,2.3813,2.3828,2.3845,2.3855,2.3855,2.3865,2.3857,2.3881,2.3858,2.3891,2.3871,2.3879,2.3881,2.3883,2.3883,2.3858,2.3895,2.3962,2.3968,2.3886,2.3885,2.3884,0,2.376,2.3791,2.3821,2.3828,2.384,2.3854,2.3859,2.3868,2.3878,2.3892,2.3898,2.3914,2.3923,2.3935,2.3931,2.3915,2.3963,2.394,2.3962,2.3962,2.3972,2.3971,2.404,2.398,2.398,2.398,2.398,0,2.3815,2.3842,2.384,2.3859,2.3888,2.3883,2.3912,2.3916,2.3924,2.3941,2.3931,2.3947,2.3942,2.3958,2.3955,2.3981,2.3986,2.3985,2.3983,2.3985,2.3985,2.3989,2.3985,2.3982,2.3981,2.3981,2.3981,0,2.3868,2.3868,2.39,2.3908,2.3911,2.3932,2.3938,2.3955,2.3955,2.3978,2.3983,2.3983,2.4002,2.3999,2.402,2.4018,2.405,2.4046,2.4046,2.4045,2.4066,2.4064,2.4139,2.4148,2.4084,2.4085,2.4085,0,2.3903,2.3923,2.3934,2.3945,2.3951,2.397,2.3981,2.3977,2.3988,2.4001,2.4015,2.4033,2.4046,2.4076,2.4077,2.4093,2.4088,2.4113,2.409,2.409,2.4086,2.4084,2.4085,2.4117,2.4118,2.4118,2.4119,0,2.3963,2.3962,2.3979,2.3995,2.4008,2.4021,2.4032,2.4042,2.4038,2.4052,2.407,2.4081,2.4102,2.4118,2.4133,2.4137,2.4127,2.4126,2.4132,2.4133,2.4132,2.4131,2.4057,2.4124,2.4124,2.4123,2.4123,2.4123,2.4007,2.4024,2.4034,2.4052,2.406,2.407,2.4086,2.4089,2.4104,2.4121,2.4118,2.4138,2.4147,2.4165,2.4171,2.4186,2.4177,2.4185,2.4187,2.4189,2.419,2.4131,2.4189,2.4189,2.4189,2.4188,2.4188,0,2.4066,2.4071,2.4088,2.4104,2.4118,2.4109,2.412,2.4132,2.4151,2.416,2.4174,2.4194,2.4211,2.4214,2.4229,2.424,2.4236,2.4244,2.4242,2.4243,2.4199,2.4192,2.4247,2.4247,2.4247,2.4247,2.4247,2.4247,2.4098,2.4125,2.4125,2.4156,2.4161,2.4182,2.4189,2.4198,2.4205,2.4229,2.4243,2.4245,2.4251,2.4267,2.428,2.4281,2.4286,2.4296,2.4294,2.4252,2.4246,2.4241,2.4234,2.4297,2.4297,2.4337,2.4337,2.4338]}]]